2023/02/23 00:00:00,118.5,-1.7
2023/02/23 00:10:00,118.5,-2.1
2023/02/23 00:20:00,118.5,-1.8
2023/02/23 00:30:00,118.6,-1.5
2023/02/23 00:40:00,118.5,-1.6
2023/02/23 00:50:00,118.5,-1.7
2023/02/23 01:00:00,118.5,-1.3
2023/02/23 01:10:00,118.5,-1.6
2023/02/23 01:20:00,118.5,-1.6
2023/02/23 01:30:00,118.6,-1.9
2023/02/23 01:40:00,118.7,-1.5
2023/02/23 01:50:00,118.7,-1.4
2023/02/23 02:00:00,118.6,-1.4
2023/02/23 02:10:00,118.5,-1.6
2023/02/23 02:20:00,118.5,-1.5
2023/02/23 02:30:00,118.4,-1.5
2023/02/23 02:40:00,118.4,-1.7
2023/02/23 02:50:00,118.3,-1.3
2023/02/23 03:00:00,118.3,-1.5
2023/02/23 03:10:00,118.3,-1.4
2023/02/23 03:20:00,118.4,-1.4
2023/02/23 03:30:00,118.5,-1.3
2023/02/23 03:40:00,118.5,-1.6
2023/02/23 03:50:00,118.5,-1.7
2023/02/23 04:00:00,118.4,-1.7
2023/02/23 04:10:00,118.4,-1.5
2023/02/23 04:20:00,118.5,-1.3
2023/02/23 04:30:00,118.6,-1.3
2023/02/23 04:40:00,118.6,-1.3
2023/02/23 04:50:00,118.5,-1.5
2023/02/23 05:00:00,118.5,-1.6
2023/02/23 05:10:00,118.5,-1.7
2023/02/23 05:20:00,118.5,-1.6
2023/02/23 05:30:00,118.6,-1.3
2023/02/23 05:40:00,118.7,-1.4
2023/02/23 05:50:00,118.7,-1.4
2023/02/23 06:00:00,118.7,-1.3
2023/02/23 06:10:00,118.8,-1.4
2023/02/23 06:20:00,119.1,-1.2
2023/02/23 06:30:00,119.2,-1.4
2023/02/23 06:40:00,119.1,-1.4
2023/02/23 06:50:00,119.2,-1.3
2023/02/23 07:00:00,119.3,-1.4
2023/02/23 07:10:00,119.3,-1.1
2023/02/23 07:20:00,119.3,-0.6
2023/02/23 07:30:00,119.1,-0.7
2023/02/23 07:40:00,119.0,-0.6
2023/02/23 07:50:00,118.9,-0.4
2023/02/23 08:00:00,118.8, 0.1
2023/02/23 08:10:00,118.5,-0.1
2023/02/23 08:20:00,118.5, 0.7
2023/02/23 08:30:00,118.5, 0.5
2023/02/23 08:40:00,118.3, 1.4
2023/02/23 08:50:00,118.2, 1.6
2023/02/23 09:00:00,118.1, 1.8
2023/02/23 09:10:00,118.1, 2.4
2023/02/23 09:20:00,118.1, 3.4
2023/02/23 09:30:00,118.0, 3.5
2023/02/23 09:40:00,117.6, 5.5
2023/02/23 09:50:00,117.6, 5.0
2023/02/23 10:00:00,117.7, 4.9
2023/02/23 10:10:00,117.3, 5.8
2023/02/23 10:20:00,116.8, 5.6
2023/02/23 10:30:00,116.2, 5.8
2023/02/23 10:40:00,116.3, 5.6
2023/02/23 10:50:00,85.7, 6.7
2023/02/23 11:00:00,85.7, 6.9
2023/02/23 11:10:00,85.7, 8.0
2023/02/23 11:20:00,82.4, 8.4
2023/02/23 11:30:00,38.4, 8.2
2023/02/23 11:40:00,---, 7.4
2023/02/23 11:50:00,113.7, 7.2
2023/02/23 12:00:00,113.3, 7.3
2023/02/23 12:10:00,112.5, 7.1
2023/02/23 12:20:00,112.7, 5.8
2023/02/23 12:30:00,112.4, 5.2
2023/02/23 12:40:00,112.6, 5.0
2023/02/23 12:50:00,112.6, 4.7
2023/02/23 13:00:00,112.4, 4.2
2023/02/23 13:10:00,111.8, 5.0
2023/02/23 13:20:00,111.8, 4.2
2023/02/23 13:30:00,112.1, 3.3
2023/02/23 13:40:00,111.8, 2.7
2023/02/23 13:50:00,111.8, 2.4
2023/02/23 14:00:00,111.6, 2.4
2023/02/23 14:10:00,111.7, 2.0
2023/02/23 14:20:00,111.3, 2.0
2023/02/23 14:30:00,110.8, 2.0
2023/02/23 14:40:00,110.5, 2.7
2023/02/23 14:50:00,110.6, 3.0
2023/02/23 15:00:00,110.9, 3.5
2023/02/23 15:10:00,111.1, 3.5
2023/02/23 15:20:00,111.4, 3.1
2023/02/23 15:30:00,111.3, 2.8
2023/02/23 15:40:00,111.1, 2.9
2023/02/23 15:50:00,111.1, 2.6
2023/02/23 16:00:00,111.0, 2.1
2023/02/23 16:10:00,111.3, 1.9
2023/02/23 16:20:00,111.5, 1.8
2023/02/23 16:30:00,111.3, 1.9
2023/02/23 16:40:00,111.0, 2.0
2023/02/23 16:50:00,111.1, 1.7
2023/02/23 17:00:00,111.4, 1.7
2023/02/23 17:10:00,111.4, 1.4
2023/02/23 17:20:00,111.2, 1.4
2023/02/23 17:30:00,111.0, 1.3
2023/02/23 17:40:00,111.0, 1.1
2023/02/23 17:50:00,110.8, 1.4
2023/02/23 18:00:00,110.8, 1.4
2023/02/23 18:10:00,110.9, 1.3
2023/02/23 18:20:00,110.8, 1.0
2023/02/23 18:30:00,110.9, 1.2
2023/02/23 18:40:00,111.2, 1.1
2023/02/23 18:50:00,111.2, 1.0
2023/02/23 19:00:00,111.2, 1.1
2023/02/23 19:10:00,111.1, 0.9
2023/02/23 19:20:00,111.1, 1.1
2023/02/23 19:30:00,110.8, 0.7
2023/02/23 19:40:00,110.6, 0.7
2023/02/23 19:50:00,110.5, 0.6
2023/02/23 20:00:00,110.4, 0.7
2023/02/23 20:10:00,110.4, 0.9
2023/02/23 20:20:00,110.3, 0.8
2023/02/23 20:30:00,110.3, 0.4
2023/02/23 20:40:00,110.3, 0.0
2023/02/23 20:50:00,110.4, 0.6
2023/02/23 21:00:00,110.2, 0.1
2023/02/23 21:10:00,110.1,-0.2
2023/02/23 21:20:00,110.0, 0.2
2023/02/23 21:30:00,110.0, 0.5
2023/02/23 21:40:00,110.1, 0.4
2023/02/23 21:50:00,110.2, 0.4
2023/02/23 22:00:00,110.1, 0.6
2023/02/23 22:10:00,110.1, 0.5
2023/02/23 22:20:00,110.0, 0.5
2023/02/23 22:30:00,110.0, 0.8
2023/02/23 22:40:00,110.1, 0.4
2023/02/23 22:50:00,110.1, 0.4
2023/02/23 23:00:00,110.0, 0.3
2023/02/23 23:10:00,110.0, 0.5
2023/02/23 23:20:00,110.0, 0.4
2023/02/23 23:30:00,110.1, 0.3
2023/02/23 23:40:00,110.0, 0.5
2023/02/23 23:50:00,109.9, 0.2
